Weather Roundup
Issued by NWS Chicago, IL

Home | Current Version | Previous Version | Graphics & Text | Print | Product List | Glossary On
Versions: 1 2 3 4 5 6 7 8 9 10 11 12 13 14 15 16 17 18 19 20 21 22 23 24 25 26 27 28 29 30 31 32 33 34 35 36 37 38 39 40 41 42 43 44 45 46 47 48 49 50
000
NZUS59 KLOT 202309
HRRLOT

CHICAGO AREA WEATHER ROUNDUP
NATIONAL WEATHER SERVICE CHICAGO/ROMEOVILLE IL
600 PM CDT FRI OCT 20 2017

NOTE: "FAIR" INDICATES FEW OR NO CLOUDS BELOW 12,000 FEET WITH NO
SIGNIFICANT WEATHER AND/OR OBSTRUCTIONS TO VISIBILITY.

* THESE STATIONS ARE NOT UNDER NWS QUALITY CONTROL. THEY ALSO MAY NOT
  REPORT WEATHER SUCH AS PRECIPITATION OR FOG.

ILZ005-006-012>014-019>023-210000-
NORTHEAST ILLINOIS

CITY           SKY/WX    TMP DP  RH WIND       PRES   REMARKS
OHARE          CLOUDY    72  50  45 S12       30.04S
MIDWAY         MOCLDY    75  49  39 S9        30.06S
AURORA         PTCLDY    71  51  49 SE7       30.04F
LANSING*       PTCLDY    67  54  61 S6        30.08S
JOLIET*        PTCLDY    73  52  47 S5        30.06S
WAUKEGAN       CLOUDY    70  52  52 S7        30.03F
DUPAGE AIRPORT CLOUDY    69  51  52 S8        30.04S
WHEELING       CLOUDY    73  51  46 S9        30.05F
KANKAKEE*      CLOUDY    71  48  43 S5        30.09S
MORRIS*        CLOUDY    72  49  43 S8        30.04S
LEWIS AIRPORT* PTCLDY    68  52  56 S7        30.06S
NORTHERLY ISL    N/A     73  46  38 S10         N/A
$$

WIZ051-052-058>065-066-070>072-210000-
SOUTHEAST WISCONSIN

CITY           SKY/WX    TMP DP  RH WIND       PRES   REMARKS
MILWAUKEE      MOCLDY    72  52  49 S8        30.02S
KENOSHA*       CLOUDY    69  51  52 S7        30.03F
RACINE*        CLOUDY    65  54  67 S6        30.04S
BURLINGTON     CLOUDY    69  51  51 S6        30.02F
WAUKESHA       CLEAR     70  46  43 S12       30.02S
WEST BEND      CLOUDY    70  45  40 S6        30.00S
$$

INZ001>003-010>013-019-020-210000-
NORTHWEST INDIANA

CITY           SKY/WX    TMP DP  RH WIND       PRES   REMARKS
GARY*          MOCLDY    73  48  40 S6        30.08S
MICHIGAN CITY* NOT AVBL
RENSSELAER*    NOT AVBL
VALPARAISO     CLEAR     72  51  47 S7        30.10S
$$

LMZ740>746-210000-
SOUTHERN LAKE MICHIGAN

STATION/POSITION TIME  SKY/WX   TEMP WIND        PRES    VSBY
                                AIR  DIR/SP/G
                 (UTC)          (F)  (DEG/KT/KT) (MB)    (MI)
HARRISON CRIB    2230            74  180/ 21/ 21   N/A
BURNHAM HARBOR   2300            73  160/  7/ 13   N/A
CALUMET HARBOR   2224            75  170/  7/  9 1017.4
BURNS HARBOR     2240            73  190/ 10/ 15 1019.0R
MICHIGAN CITY    2240            74  150/  7/  9   N/A
$$

ABBREVIATIONS USED IN REMARKS
   TC - TEMPERATURE IN CELSIUS
  WCI - WIND CHILL INDEX
   HX - HEAT INDEX
  VSB - VISIBILITY
$$



USA.gov is the U.S. government's official web portal to all federal, state and local government web resources and services.